GSAT-9

Last updated on Thu Jul 03 2025 00:02:47 GMT+0000 (Coordinated Universal Time)

1 42695U 17024A 25183.61955191 -.00000279 00000+0 00000+0 0 9993 2 42695 0.0542 105.7776 0002376 353.9055 141.5918 1.00270406 29796
UTC large
Height (km)
Speed (km/s)
/
Latitude / Longitude
Inclination (degrees)
Orbital Period (minutes)
Azimuth
Elevation
Range (km)
Doppler Factor

Next 0 passes for location: London (51.5072 / 0.1276)

Sorry there are no passes over London.